sat.trackr.live / text

‹ back to catalog

QIANFAN-47

NORAD 62248 · 2024-232M

PAYLOAD ACTIVE UNKNOWN

§ Identity

Operator
Country
PRC
Launch date
2024-12-05
Launch site
TAISC
Launch vehicle
Mass (kg)
RCS (m²)

External: N2YO · Heavens-Above · Gunter

§ Orbital elements

Epoch: 2026-09-22T22:06:12.803328Z

Period
106.59 min
Inclination
89.0163°
Eccentricity
0.0016794
Mean motion
13.51029538 rev/d
Perigee alt
1,056.0 km
Apogee alt
1,081.0 km
Semi-major
7,446.6 km
B*
1.3761e-4
RAAN
12.6994°
Arg perigee
98.0084°
Mean anomaly
262.2973°
Rev number
13,761

§ Raw data

QIANFAN-471 62248U 24232M   26265.92098152  .00000101  00000+0  13761-3 0  99942 62248  89.0163  12.6994 0016794  98.0084 262.2973 13.51029538137614

JSON: /api/v1/satellites/62248 · /tle

For live sub-satellite position, see the globe view (requires WebGL).

§ Visibility from observer

Set your observer location to see the next 7 days of passes ≥ 10°. The values pass through the URL so the page stays shareable.

No JS? Fill the form by hand. The geolocation button needs JavaScript.